Regional Weather Roundup
Issued by NWS Albany, NY

Home | Current Version | Previous Version | Graphics & Text | Print | Product List | Glossary Off
Versions: 1 2 3 4 5 6 7 8 9 10 11 12 13 14 15 16 17 18 19 20 21 22 23 24 25 26 27 28 29 30 31 32 33 34 35 36 37 38 39 40 41 42 43 44 45 46 47 48 49 50

000
ASUS41 KALY 200410
RWRALY

NEW YORK STATE HOURLY WEATHER ROUNDUP
NATIONAL WEATHER SERVICE ALBANY NY
1200 AM EDT WED AUG 20 2014

NOTE: "FAIR" INDICATES FEW OR NO CLOUDS BELOW 12,000 FEET WITH NO
SIGNIFICANT WEATHER AND/OR NO OBSTRUCTIONS TO VISIBILITY.

NYZ032-033-038>043-046>054-057>066-NYZ062>081-200500-
EAST


CITY           SKY/WX    TMP DP  RH WIND       PRES   REMARKS
ALBANY         PTCLDY    61  57  87 CALM      29.94R
GLENS FALLS    CLEAR     54  50  86 CALM      29.95R
POUGHKEEPSIE   PTCLDY    65  60  84 CALM      29.93S
NEWBURGH       CLEAR     68  63  83 S6        29.96R
MONTGOMERY     PTCLDY    61  57  87 CALM      29.95R
WHITE PLAINS   PTCLDY    64  62  93 CALM      29.95R
ISLIP          MOCLDY    65  62  90 CALM      29.93S
NEW YORK CITY  MOCLDY    72  65  78 SE6       29.94R
CENTRAL PARK   PTCLDY    71  64  78 CALM      29.97R
$$

NYZ005>009-017-018-044>046-055-056-200500-
CENTRAL


CITY           SKY/WX    TMP DP  RH WIND       PRES   REMARKS
FULTON         CLEAR     66  58  75 VRB3      29.87S
SYRACUSE       MOCLDY    66  61  84 E6        29.88R
ROME           PTCLDY    66  56  70 E7        29.92R
ELMIRA         CLEAR     63  63 100 CALM      29.91R FOG
BINGHAMTON     CLEAR     67  62  84 S5        29.95R
MONTICELLO     CLOUDY    64  57  77 CALM      29.99R
$$

NYZ026>034-041>043-200500-
NORTH


CITY           SKY/WX    TMP DP  RH WIND       PRES   REMARKS
WATERTOWN      CLEAR     60  53  77 CALM      29.88S
FORT DRUM      NOT AVBL
MASSENA        CLEAR     57  54  89 CALM      29.92S
SARANAC LAKE   CLEAR     46  44  93 NE3       29.96S
PLATTSBURGH    CLEAR     54  52  93 CALM      29.94S
$$

NYZ001>004-010>016-019>021-200500-
WEST


CITY           SKY/WX    TMP DP  RH WIND       PRES   REMARKS
NIAGARA FALLS  MOCLDY    67  63  87 SE7       29.84S
BUFFALO        MOCLDY    67  55  65 SE10      29.85F
DUNKIRK        MOCLDY    66  60  81 SW9       29.87R
JAMESTOWN      MOCLDY    66  57  72 SE6       29.91S
WELLSVILLE     CLEAR     66  63  90 SW6       29.97R
ROCHESTER      CLEAR     62  58  86 CALM      29.87S
PENN YAN       CLEAR     68  65  90 SW6       29.90R
$$

             KEY
       WCI = WIND CHILL INDEX
       VSB = VISIBILITY
       HX  = HEAT INDEX
$$



USA.gov is the U.S. government's official web portal to all federal, state and local government web resources and services.